Location: Newark
(37.3394°N, 6.0261°W)
Time: 04:47:33
(UTC+00:00)

N. Korean satellite - Visible Passes

Search period start: 23 March 2019 00:00
Search period end: 02 April 2019 00:00
Orbit: 456 x 510 km, 97.2° (Epoch: 22 March)

Date Brightness Start Highest point End Pass type
(mag) Time Alt. Az. Time Alt. Az. Time Alt. Az.
23 Mar 9.5 05:52:12 10° NE 05:55:04 23° E 05:57:57 10° SSE visible
24 Mar 10.3 05:29:07 10° ENE 05:30:07 11° E 05:31:07 10° ESE visible
27 Mar 9.7 05:46:29 10° NE 05:49:10 19° E 05:51:52 10° SE visible
31 Mar 9.8 05:40:47 10° NE 05:43:13 17° E 05:45:39 10° SE visible
